Nagpur Sonegaon, India

11:40 PM IST on January 16, 2018 (GMT +0530)
Nagpur

Weather History for VANP - November, 2012

Change the Weather History Date:

Friday, November 2, 2012

  Actual Average Record
Temperature  
Mean Temperature 74 °F -  
Max Temperature 77 °F 87 °F - ()
Min Temperature 71 °F 60 °F - ()
Cooling Degree Days 9    
Growing Degree Days 24 (Base 50)    
Moisture  
Dew Point 71 °F    
Average Humidity 90    
Maximum Humidity 100    
Minimum Humidity 21    
Precipitation  
Precipitation 0.67 in 0.02 in - ()
Sea Level Pressure  
Sea Level Pressure 29.82 in    
Wind  
Wind Speed 4 mph ()    
Max Wind Speed 8 mph    
Max Gust Speed -    
Visibility 1.8 miles    
Events Rain    
T = Trace of Precipitation, MM = Missing Value Source: Averaged Metar Reports

Daily Weather History Graph

Daily Weather History Graph

Search for Another Location

Airport or City:

Trip Planner

Search our weather history database for the weather conditions in past years. The results will help you decide how hot, cold, wet, or windy it might be!

Date:

Astronomy

Nov. 02, 2012 Rise Set
Actual Time 6:17 AM IST 5:37 PM IST
Civil Twilight 5:54 AM IST 6:00 PM IST
Nautical Twilight 5:27 AM IST 6:26 PM IST
Astronomical Twilight 5:01 AM IST 6:52 PM IST
Moon 8:15 PM IST (11/2) 9:00 AM IST (11/2)
Length of Visible Light 12h 06m
Length of Day
11h 20m
Waning Gibbous, 90% of the Moon is Illuminated
Nov 2
Waning Gibbous
Nov 7
Last Quarter
Nov 14
New
Nov 20
First Quarter
Nov 28
Full

Hourly Weather History & Observations

Time (IST) Temp. Dew Point Humidity Pressure Visibility Wind Dir Wind Speed Gust Speed Precip Events Conditions
12:10 AM 77.0 °F 66.2 °F 69% 29.86 in 3.1 mi ENE 4.6 mph - N/A   Haze
2:30 AM 77 °F 63 °F 53% 29.77 in 2 mi Calm Calm - -   Overcast
3:10 AM 77.0 °F 33.8 °F 21% 29.83 in 3.1 mi ENE 3.5 mph - N/A   Haze
4:10 AM 75.2 °F 69.8 °F 83% 29.80 in 3.1 mi ENE 4.6 mph - N/A   Haze
5:10 AM 73.4 °F 71.6 °F 94% 29.80 in 2.5 mi ENE 4.6 mph - N/A Rain Light Rain
5:30 AM 73 °F 72 °F 95% 29.80 in 1 mi ENE 3.5 mph - - Rain Light Rain
6:10 AM 73.4 °F 71.6 °F 94% 29.83 in 2.5 mi NE 4.6 mph - N/A Rain Light Rain
7:10 AM 73.4 °F 71.6 °F 94% 29.86 in 2.5 mi ENE 3.5 mph - N/A Rain Light Rain
8:10 AM 73.4 °F 71.6 °F 94% 29.86 in 1.9 mi ENE 5.8 mph - N/A Rain Light Rain
8:30 AM 74 °F 72 °F 92% 29.85 in 1 mi East 6.9 mph - -   Haze
9:10 AM 77.0 °F 71.6 °F 83% 29.89 in 1.9 mi ENE 8.1 mph - N/A   Haze
10:10 AM 77.0 °F 73.4 °F 89% 29.89 in 1.9 mi ENE 5.8 mph - N/A Rain Light Rain
11:30 AM 74 °F 73 °F 97% 29.84 in 2 mi East 6.9 mph - - Rain Light Rain
12:10 PM 73.4 °F 73.4 °F 100% 29.86 in 0.9 mi NE 2.3 mph - N/A Rain Light Rain
1:10 PM 73.4 °F 73.4 °F 100% 29.86 in 1.1 mi NE 2.3 mph - N/A Rain Light Rain
2:10 PM 77.0 °F 75.2 °F 94% 29.80 in 1.6 mi NE 4.6 mph - N/A   Haze
2:30 PM 76 °F 74 °F 93% 29.75 in 1 mi NE 3.5 mph - -   Haze
3:10 PM 77.0 °F 75.2 °F 94% 29.77 in 1.9 mi NE 3.5 mph - N/A   Haze
5:10 PM 75.2 °F 73.4 °F 94% 29.80 in 1.2 mi East 4.6 mph - N/A Rain Light Rain
5:30 PM 74 °F 74 °F 99% 29.76 in 1 mi East 4.6 mph - - Rain Light Rain
6:10 PM 75.2 °F 73.4 °F 94% 29.80 in 1.2 mi ENE 3.5 mph - N/A Rain Light Rain
7:10 PM 75.2 °F 73.4 °F 94% 29.80 in 1.2 mi ENE 2.3 mph - N/A Rain Light Rain
8:10 PM 75.2 °F 73.4 °F 94% 29.83 in 2.5 mi East 4.6 mph - N/A Rain Light Haze
8:30 PM 73 °F 73 °F 99% 29.81 in 1 mi East 3.5 mph - - Rain Light Rain
9:10 PM 73.4 °F 73.4 °F 100% 29.83 in 2.5 mi East 3.5 mph - N/A Rain Light Haze
10:10 PM 73.4 °F 73.4 °F 100% 29.83 in 2.5 mi Calm Calm - N/A   Haze
11:10 PM 73.4 °F 73.4 °F 100% 29.83 in 2.5 mi ENE 2.3 mph - N/A   Haze
11:30 PM 73 °F 72 °F 98% 29.79 in 1 mi NE 2.3 mph - -   Haze